Lapse_Rate
6.4 6.6 6.6 6.3 6.3 6.5 6.6 6.3 6.2 6.2 6.1 6.2 6.4 6.4 6.5 6.4 6.4 6.3 6.2 6.3 6.2 6.4 6.4 6.5 6.5 6.4 6.1 6.1 6.1 6.1 6.0 6.1 5.9 5.8 5.8 5.7 5.7 6.0 6.0 6.0 5.9 5.9 5.7
6.5 6.6 6.4 6.2 6.1 6.3 6.7 6.6 6.3 6.1 6.0 5.9 6.1 6.2 6.5 6.4 6.3 6.5 6.3 6.3 6.3 6.6 6.5 6.4 6.4 6.0 6.1 6.1 5.9 6.1 6.1 5.9 5.6 5.7 5.7 5.6 5.8 6.0 5.8 5.7 5.6 5.5 5.5
6.5 6.5 6.9 6.3 6.1 6.4 6.6 6.7 6.4 6.1 5.9 5.6 5.6 5.8 6.0 6.2 6.3 6.6 6.5 6.6 6.5 6.3 6.2 6.2 5.8 6.1 6.1 6.0 6.3 6.1 5.9 6.0 5.8 5.8 5.7 5.6 5.6 5.5 5.6 5.7 5.6 5.5 5.6
6.7 6.7 6.8 6.8 6.3 6.5 6.6 6.8 6.5 6.1 5.9 5.7 5.9 6.2 6.1 6.2 6.4 6.7 6.8 6.6 6.4 6.4 6.2 6.2 6.0 6.2 6.1 6.2 6.2 6.0 6.1 6.0 5.9 5.7 5.5 5.4 5.5 5.7 5.6 5.6 5.6 5.5 5.4
7.0 6.9 7.0 7.0 6.5 6.5 6.7 6.8 6.5 6.2 6.1 6.0 6.2 6.4 6.3 6.5 6.7 6.7 6.6 6.7 6.7 6.6 6.2 6.2 6.1 6.3 6.3 6.2 6.1 5.9 5.9 5.9 5.8 5.7 5.8 5.7 5.6 5.6 5.6 5.5 5.5 5.5 5.4
7.3 7.2 7.0 6.9 6.8 6.6 6.3 6.5 6.4 6.2 6.2 6.2 6.5 6.7 6.7 6.7 6.7 6.7 6.8 6.7 6.7 6.6 6.4 6.2 6.2 6.3 6.4 6.2 6.1 5.9 5.9 5.9 5.9 5.9 5.8 5.8 5.7 5.7 5.7 5.6 5.7 5.6 5.4
7.6 7.5 7.4 7.1 7.1 6.8 6.5 6.6 6.6 6.4 6.4 6.4 6.7 6.9 6.9 6.9 7.0 7.1 6.9 6.7 6.8 6.8 6.3 6.3 6.2 6.5 6.4 6.2 6.2 6.0 5.9 6.0 5.8 5.7 5.8 5.8 5.7 5.5 5.4 5.5 5.5 5.3 5.2
8.0 7.8 7.7 7.4 7.2 6.9 6.7 6.9 6.9 6.8 6.9 6.9 6.8 6.9 7.0 7.0 7.1 7.2 7.1 6.9 6.8 6.6 6.5 6.4 6.4 6.4 6.4 6.2 6.2 6.1 5.9 6.0 5.8 5.9 5.9 5.8 5.7 5.6 5.5 5.6 5.6 5.6 5.4
8.1 8.0 7.9 7.6 7.6 7.4 7.3 7.1 7.1 7.0 7.4 7.5 7.4 7.2 7.2 7.1 7.2 7.2 7.2 7.1 6.8 6.9 6.7 6.8 6.6 6.5 6.4 6.4 6.3 6.1 6.0 6.0 5.8 5.9 5.9 6.0 6.0 5.8 5.7 5.6 5.4 5.5 5.5
8.2 8.2 8.2 8.0 7.9 7.8 7.6 7.4 7.3 7.3 7.4 7.5 7.6 7.5 7.2 7.1 7.1 7.1 7.2 7.0 7.0 6.8 6.8 6.8 6.6 6.5 6.4 6.3 6.4 6.3 6.1 5.9 5.8 5.8 5.8 5.9 5.8 5.8 5.8 5.6 5.5 5.6 5.5
8.2 8.3 8.4 8.3 8.1 8.0 8.0 7.9 7.7 7.5 7.5 7.5 7.5 7.5 7.6 7.6 7.3 7.4 7.2 7.0 6.8 6.8 7.0 6.9 6.6 6.6 6.5 6.4 6.4 6.3 6.2 6.1 5.9 5.9 6.1 6.1 6.0 6.0 5.9 6.0 5.9 5.7 5.6
8.4 8.5 8.7 8.5 8.4 8.3 8.1 8.1 7.9 7.9 7.8 7.8 7.8 7.8 7.8 7.7 7.6 7.3 7.2 7.0 6.7 6.7 7.0 7.0 6.8 6.7 6.4 6.4 6.4 6.2 6.1 6.0 6.0 5.9 6.0 6.0 6.0 6.0 6.1 5.9 5.8 5.7 5.7
8.6 8.7 8.8 8.8 8.5 8.4 8.3 8.1 8.0 7.9 7.9 7.9 7.9 7.6 7.6 7.8 7.9 7.6 7.3 7.3 7.1 7.0 7.2 7.1 6.9 6.7 6.4 6.2 6.0 6.0 6.1 6.1 6.2 6.0 6.1 6.1 6.1 6.1 6.1 6.1 6.0 5.9 5.9
8.8 8.8 8.8 8.7 8.6 8.5 8.3 8.1 8.0 7.9 7.8 7.7 7.7 7.7 7.8 7.7 7.8 7.7 7.7 7.5 7.2 7.2 7.3 7.2 6.9 6.8 6.8 6.7 6.4 6.2 6.1 6.2 6.3 6.2 6.2 6.2 6.3 6.2 6.0 6.0 6.1 6.0 5.9
8.7 8.8 8.6 8.6 8.5 8.5 8.5 8.5 8.4 8.1 7.9 7.9 7.8 7.6 7.5 7.7 7.7 7.2 7.1 7.0 7.2 7.3 7.3 7.6 7.4 7.2 7.0 6.8 6.7 6.6 6.3 6.3 6.2 6.2 6.4 6.2 6.2 6.1 6.1 6.2 6.1 6.0 5.9
8.9 8.9 8.7 8.6 8.6 8.5 8.6 8.5 8.4 8.3 8.1 7.8 7.6 7.5 7.4 7.3 7.6 7.4 6.9 7.0 7.5 7.4 7.3 7.7 7.7 7.2 6.8 6.7 6.7 6.7 6.6 6.7 6.5 6.4 6.3 6.0 6.0 6.0 6.1 6.0 5.8 5.8 5.8
8.8 8.9 8.7 8.6 8.6 8.4 8.4 8.6 8.9 8.4 8.0 8.0 7.9 7.6 7.4 7.3 7.1 7.2 7.2 7.0 7.1 7.0 7.4 7.8 7.8 7.7 7.2 6.7 6.4 6.4 6.7 6.6 6.5 6.3 6.4 6.1 6.0 6.0 6.0 5.9 5.9 5.8 5.7
8.9 8.8 8.8 8.7 8.5 8.5 8.5 8.4 8.3 8.4 8.5 8.1 8.0 8.0 7.9 7.6 7.4 7.4 7.3 7.4 7.4 7.3 7.4 7.4 7.5 7.3 7.1 6.9 6.5 6.3 6.3 6.5 6.4 6.4 6.6 6.3 6.0 6.0 6.0 6.0 6.0 5.8 5.7
9.0 8.9 8.8 8.8 8.8 8.6 8.5 8.8 8.7 8.6 8.6 8.6 8.6 8.5 8.3 8.1 8.0 7.9 7.7 7.5 7.4 7.2 7.1 7.1 7.2 6.9 6.4 6.6 6.5 6.1 6.1 6.2 6.3 6.3 6.5 6.4 6.0 6.1 6.2 6.1 6.0 5.8 5.7
9.0 8.7 8.7 8.1 7.9 7.4 8.5 8.6 8.5 8.9 8.9 8.8 8.6 8.6 8.4 8.4 8.3 8.1 7.8 7.5 7.3 7.2 7.0 6.8 6.9 6.9 6.7 6.1 6.3 6.3 6.0 5.7 5.9 6.3 6.4 6.3 6.1 6.1 6.0 5.9 5.8 5.9 5.8
8.6 8.6 8.5 8.2 8.2 8.3 8.4 8.6 8.8 8.9 8.7 8.6 8.6 8.5 8.5 8.3 8.1 7.7 7.6 7.5 7.4 7.2 7.1 7.0 6.9 6.8 6.4 6.1 5.8 6.1 5.7 5.4 5.6 6.0 6.1 6.1 6.1 5.9 5.9 5.9 5.9 5.7 5.7
8.2 8.3 8.4 8.2 8.2 8.5 8.4 8.6 8.7 8.6 8.5 8.4 8.5 8.5 8.4 8.1 7.8 7.6 7.4 7.3 7.2 6.9 6.8 6.5 6.2 6.4 6.3 5.9 5.3 5.3 5.6 5.0 5.3 5.8 6.2 6.1 6.1 6.1 5.9 6.1 5.9 5.7 5.6
7.9 7.9 8.1 8.2 8.2 8.9 8.5 8.5 8.3 8.3 8.3 8.4 8.4 8.6 8.3 8.0 7.7 7.4 7.4 7.4 7.0 6.9 7.2 7.3 6.9 5.9 5.0 5.1 5.1 4.9 5.2 5.2 5.0 5.5 6.2 6.0 6.1 5.9 6.2 6.1 5.9 5.6 5.5
7.6 7.8 7.8 8.1 8.2 8.2 8.2 8.2 8.2 8.2 8.3 8.2 8.3 8.3 8.1 7.8 7.4 7.1 7.0 7.0 6.7 6.8 7.0 7.1 5.7 4.2 4.1 4.8 5.1 4.9 4.9 4.7 5.0 5.1 5.6 5.8 5.9 5.8 5.9 6.0 5.8 5.6 5.5
7.5 7.7 7.8 7.9 8.0 8.1 8.3 8.2 8.2 8.3 8.3 8.2 8.1 7.9 7.7 7.5 7.2 6.9 6.8 6.7 6.5 6.5 6.9 6.9 5.4 5.0 4.8 4.6 4.9 5.0 4.8 4.6 4.7 5.1 5.2 5.8 5.6 6.1 5.8 5.8 5.8 5.4 5.5
7.5 7.5 7.6 7.7 7.8 7.9 7.9 8.1 8.2 8.2 8.1 7.9 7.7 7.5 7.3 7.1 6.9 6.7 6.5 6.3 6.1 6.2 6.8 6.7 5.9 5.0 4.9 4.9 4.9 5.1 5.0 4.9 5.0 4.7 5.0 4.9 5.8 6.1 5.7 5.7 5.6 5.4 5.6
Wind_Speed
17 14 14 13 13 12 11 9 9 8 9 9 8 8 8 7 7 7 8 6 7 6 5 6 6 5 3 2 3 4 5 5 6 3 3 3 3 3 2 3 4 5 3
17 15 15 13 13 13 12 10 10 9 8 9 9 8 8 8 7 8 7 5 5 5 6 6 1 2 3 2 3 4 5 4 4 6 3 3 4 3 3 4 3 3 2
15 16 15 14 14 14 13 11 10 9 9 9 8 9 10 9 8 7 4 3 5 6 3 2 2 3 1 1 4 4 3 3 3 5 4 3 3 4 4 2 3 3 2
16 16 14 15 15 14 13 12 11 11 10 9 9 9 8 9 7 6 5 6 6 2 4 3 2 1 1 2 3 2 2 4 4 5 5 5 3 1 2 2 1 2 3
15 14 15 13 13 12 12 12 11 11 9 9 8 8 9 8 6 7 7 6 6 7 6 4 2 3 5 5 3 1 2 4 4 4 5 4 4 3 2 1 2 3 1
15 15 13 13 13 13 12 13 12 10 10 9 8 9 10 8 10 11 7 7 7 8 7 5 4 5 6 4 2 1 3 3 4 5 4 4 4 4 2 2 2 2 2
15 13 14 13 14 13 13 13 13 13 12 10 10 10 10 10 11 11 11 8 8 7 7 7 5 4 4 3 2 3 4 3 4 6 6 5 3 1 1 2 2 3 3
14 14 14 14 14 13 14 14 13 12 13 11 11 11 10 10 12 12 13 9 8 9 9 8 7 6 4 3 2 2 3 3 2 2 5 3 5 3 4 4 4 4 4
15 15 15 15 14 14 14 14 12 12 11 11 11 12 12 10 13 13 14 10 10 10 8 8 8 7 7 5 3 4 4 3 5 2 2 4 5 5 7 5 5 4 4
15 16 15 15 15 15 14 13 12 12 11 10 11 12 11 11 12 12 12 7 9 8 8 8 7 8 10 8 3 2 3 1 2 4 4 4 4 7 6 2 4 4 2
17 15 15 15 16 14 13 11 12 12 10 12 12 11 11 12 11 15 16 10 10 9 9 8 7 8 8 7 4 3 1 1 4 4 3 3 2 2 3 4 5 3 2
14 15 15 14 13 12 13 11 12 11 11 10 10 8 9 10 10 14 17 14 12 11 11 8 7 12 10 9 7 7 6 5 4 4 3 3 2 1 1 2 4 4 6
16 15 15 14 13 11 13 12 10 11 10 10 9 9 10 9 9 12 18 17 13 12 9 9 14 15 11 7 7 8 7 4 3 4 3 2 1 1 2 2 3 4 5
16 15 14 14 13 13 11 11 11 11 11 10 10 11 9 10 9 8 8 8 6 10 7 7 9 9 6 5 8 6 4 4 4 4 4 3 3 4 3 2 2 2 3
14 14 14 13 14 13 13 11 12 13 13 13 12 13 12 12 12 13 13 12 12 11 10 9 8 8 8 8 6 6 5 6 5 5 5 5 4 4 3 2 1 2 2
14 12 12 12 12 12 11 7 8 6 6 8 6 11 10 3 12 16 16 15 13 20 9 10 10 10 10 9 8 8 7 7 6 5 5 5 5 5 4 3 3 2 2
10 11 11 11 11 11 11 11 9 2 5 3 8 10 10 9 12 18 19 15 19 18 13 11 12 12 12 10 10 9 9 8 7 7 6 6 5 5 5 5 4 3 2
12 11 8 6 6 8 9 11 9 9 9 7 4 5 7 7 12 10 13 13 5 11 13 11 13 12 11 11 11 11 9 9 8 8 7 7 6 6 6 5 5 4 4
13 7 10 8 4 6 7 8 8 7 8 7 3 3 6 8 8 9 18 9 12 12 12 14 13 13 12 11 11 11 11 10 9 9 8 8 8 7 6 6 5 2 2
11 9 6 9 8 13 11 8 7 8 8 7 7 7 6 5 5 6 8 10 9 10 10 12 10 10 10 12 9 11 12 11 10 10 9 8 8 8 7 6 5 5 5
5 8 9 9 10 12 9 7 6 7 7 7 7 7 11 8 7 8 8 9 11 12 12 12 11 11 11 12 11 10 11 11 11 10 9 9 9 8 7 6 6 6 5
7 8 8 9 7 6 6 5 5 5 6 5 4 3 11 6 6 7 8 9 10 11 12 12 12 12 14 12 13 10 12 12 11 11 10 10 9 9 7 7 7 6 5
9 8 8 7 7 8 5 4 4 4 5 5 5 5 5 6 6 6 7 8 9 9 9 10 11 11 11 11 12 11 12 11 11 10 11 10 10 9 8 8 8 7 6
6 6 6 6 5 5 5 5 5 5 6 6 5 6 7 7 7 8 7 6 7 8 8 8 8 11 10 10 11 15 15 15 14 14 13 11 11 9 8 8 8 8 7
3 5 5 5 5 6 5 5 6 6 6 7 7 7 7 7 6 6 5 5 6 7 6 6 5 7 10 11 8 12 15 23 19 20 14 11 13 14 10 8 8 8 9
5 5 5 5 6 6 6 7 7 6 7 6 6 6 6 6 6 6 5 5 6 6 6 5 6 10 8 8 12 17 22 25 21 24 18 11 11 10 10 10 13 8 10
Wind_Direction
197 196 197 198 204 206 205 195 199 187 183 189 192 187 190 186 191 209 225 213 215 230 231 245 253 204 237 227 224 232 239 242 269 295 288 325 297 284 238 241 242 245 231
191 185 191 191 198 203 202 192 190 187 181 192 202 204 202 197 198 214 230 233 226 214 228 225 235 206 221 210 237 243 252 240 280 292 332 279 277 312 304 267 256 256 301
187 189 186 190 194 207 201 190 183 183 182 190 202 209 207 202 206 214 229 240 224 234 230 159 155 183 190 236 256 249 251 245 251 277 295 291 313 331 300 279 340 354 300
186 189 186 187 193 201 201 186 180 182 181 186 201 208 205 199 198 204 216 229 222 263 133 144 166 239 298 253 259 283 286 287 267 271 287 297 299 19 328 327 202 25 360
177 182 187 187 183 187 194 185 179 178 183 182 178 181 186 190 193 200 216 227 189 175 152 151 122 70 68 39 300 318 282 263 278 287 281 281 282 287 298 12 312 334 307
180 186 183 183 180 184 192 182 177 180 178 175 181 180 183 198 184 200 211 209 192 177 151 145 132 149 108 111 83 37 324 281 283 288 286 287 280 264 243 289 284 278 259
183 184 183 185 187 181 189 183 181 182 178 183 185 194 201 212 203 204 196 196 176 173 160 168 178 153 166 154 142 144 125 108 263 281 279 283 287 258 276 252 289 302 320
182 183 185 186 193 182 188 190 184 181 183 186 190 200 204 208 190 187 185 184 177 183 180 181 184 172 174 193 228 262 273 258 260 281 254 282 302 303 289 320 320 297 259
185 188 187 185 187 186 194 193 190 185 187 190 193 199 206 211 190 177 175 181 185 188 181 185 184 181 157 184 230 282 294 274 151 37 43 101 60 13 284 292 270 275 298
189 193 188 183 184 191 194 187 188 192 192 191 200 206 205 214 177 169 189 185 190 190 187 188 197 196 157 173 227 263 276 253 215 183 163 126 80 75 63 311 323 319 34
190 186 189 188 189 191 188 188 185 188 188 195 198 198 203 213 188 184 191 193 197 197 199 194 192 169 155 156 226 206 223 250 151 187 189 177 128 90 82 56 30 342 288
180 184 189 189 192 188 183 184 185 185 191 199 204 207 211 218 190 189 192 214 193 199 204 195 178 162 159 170 199 128 150 197 158 146 167 168 164 118 55 67 81 83 69
178 187 190 186 187 181 182 177 182 186 196 204 209 217 214 212 209 187 192 198 186 209 207 180 149 160 156 167 133 143 180 201 182 168 187 186 187 111 174 163 119 108 103
182 187 184 185 183 183 189 189 193 196 201 204 208 216 215 210 206 193 204 209 198 211 117 146 163 165 186 136 152 170 181 198 210 195 191 170 184 194 184 165 195 209 242
192 186 189 192 187 188 198 195 199 199 196 198 206 212 211 214 209 188 180 191 199 200 167 156 174 193 196 186 187 179 177 177 187 189 194 181 195 201 183 164 174 192 232
185 184 190 192 193 200 195 190 46 18 215 213 213 216 222 232 153 171 185 182 161 147 181 186 192 200 209 208 198 184 187 192 190 195 204 198 193 190 188 181 194 230 238
197 183 184 190 194 199 198 200 192 91 72 182 214 215 221 236 171 178 187 175 161 162 203 204 204 205 205 204 201 198 191 193 181 191 201 203 201 196 182 197 201 214 210
188 171 168 188 223 213 192 199 208 202 201 207 192 213 215 196 172 165 126 127 162 221 216 216 216 209 212 201 197 192 188 179 191 195 198 200 196 199 196 200 206 220 210
199 159 169 127 151 234 233 200 196 191 203 201 126 92 96 81 94 126 160 193 206 208 222 219 218 209 210 207 200 198 184 185 188 193 195 196 196 198 202 205 203 231 207
222 146 135 145 173 235 222 173 177 193 194 196 202 197 146 132 176 178 194 217 217 225 222 232 232 219 209 207 191 207 181 179 185 193 194 195 201 201 202 205 208 206 205
176 145 131 142 169 192 191 174 172 192 194 203 215 202 171 187 197 190 197 209 222 231 231 229 227 213 206 199 189 193 195 182 188 192 192 193 191 196 197 200 210 216 221
159 163 161 161 162 146 168 152 183 189 197 198 188 152 164 198 202 196 199 213 223 232 239 239 229 219 212 190 197 188 188 184 189 187 189 190 190 194 187 190 203 211 210
156 166 162 147 148 143 137 159 183 199 208 214 206 166 181 205 205 212 221 235 247 246 243 241 235 216 211 196 198 180 185 182 183 177 181 177 186 191 186 193 201 204 207
148 146 155 139 133 139 163 177 193 209 223 226 214 216 212 204 208 220 231 247 251 252 233 229 224 212 202 193 189 185 184 169 157 176 165 169 183 181 188 194 202 199 196
154 165 171 160 162 189 186 205 209 212 214 221 220 220 211 208 215 225 235 240 255 260 225 215 208 197 189 178 183 157 156 156 157 166 163 175 182 179 187 193 193 195 198
194 203 197 184 179 194 198 207 210 203 207 223 232 234 236 232 227 223 220 225 240 240 205 194 176 167 154 155 170 146 163 168 162 162 175 175 175 182 186 187 194 195 196